Tracking 31032 objects as of 13-Jul-2025
HD Live streaming from Space Station
objects crossing your sky now

IRIDIUM 33 DEB

Track IRIDIUM 33 DEB now!
10-day predictions


NORAD ID: 34693
Int'l Code: 1997-051KQ
Perigee: 552.8 km
Apogee: 569.2 km
Inclination: 86.3 °
Period: 95.7 minutes
Semi major axis: 6932 km
RCS: 0.01 m2 (small)
Launch date: September 14, 1997
Source: United States (US)
Launch site: TYURATAM MISSILE AND SPACE COMPLEX (TTMTR)

Note: This is SATELLITE DEBRIS
Your satellite tracking list
Your tracking list is empty




NASA's NSSDC Master Catalog

Two Line Element Set (TLE):
1 34693U 97051KQ  25194.01029877  .00027026  00000-0  19352-2 0  9991
2 34693  86.3184  17.8130 0011825 205.8147 315.4855 15.04228896866692
Source of the keplerian elements: AFSPC